"Pseudo-MPEC" for A10arpU

Created 2018 Dec 8 4:18:03 UT using Find_Orb

Click here for an explanation of pseudo-MPECs

 
 Astrometry: 
     A10arpU  C2018 12 064e[ZH^`og,*fXAstrometry7Q*(-dEU5\RC\7!n*5YeI\#/Q$P8bT05
     A10arpU  C2018 12 06Us'e.==+y.,Hlu[WDq5.#m^;UUeT$tj3GKxUhoaB#GjoC%'AQpOTT05
     A10arpU  C2018 12 06L!c=redacted;i0hg@W7[Sn(w%EGSov-XdVvbEc.?Rbt8s1sLYIwT05
     A10arpU  C2018 12 06%@ICQy+vI*uU]);0nh\Nj_KeH.x9gr=1#pyrs]nO`+XUMCR!hlLnT05
     A10arpU KC2018 12 06[+U_!%^NyBBN\'`7w34*hvop-CM1qwp\L+A^=vfy#MjU:$_][5RQ474
     A10arpU KC2018 12 0651cLclick]IG]-dYt=7!-F;e_xFt*RdTAnCRWo6MhZ-bwxc^DXJ)474
     A10arpU KC2018 12 06ug'[$Ilt_Mj2;KsWHqta;R1x=[U38N.%/%:4N,b33,yNWM_ZDYA:474
     A10arpU  C2018 12 06Yv%^`*RN29jhereyLvxUTK:hJtc`o0CjX`J/?bI#;w5Tg4Z=f5K8T08
     A10arpU  C2018 12 060KDSpWmt@f\iiQf$_-8@$%UPq+ig/F!sKy'uVtov;,?*]_cwlU=qT08
     A10arpU KC2018 12 06LAj';p'Bk7p;heG-p^m3[9hRd#%ebk0ifTp'$w#p5N1Wm2d=p1PR474
     A10arpU  C2018 12 06U^T?MAsxxuZHdb3AforUE`s;q#GvB,frou1$:8yg6U?25APQTLaST08
     A10arpU  C2018 12 0644T,LO=PCVOdl**XtKc%Z5f3U6l8-Zc425=P?:`n%RS/e'4N,n=MT08
     A10arpU  C2018 12 06YEyw322QRkJ.-Ys4H!uHRjO%UI8TH5A4HLPTrRTBaV4P$6%tT'MET08
     A10arpU  C2018 12 06\4)q60Gj(TxJ;nOE*e$%t,,s=lMwji3$L*:\explanation,^d`7T08

Station data:
(474) Mount John Observatory, Lake Tekapo  (S43.987388 E170.464960)  New
   Zealand.  Observers A. C. Gilmore, P. M. Kilmartin. Measurer P. M.
   Kilmartin. 1.0-m f/7.7 reflector + CCD.
(T05) ATLAS-HKO, Haleakala  (N20.707573 W156.257010)  US/Hawaii.  Observers
   L. Denneau, A. Heinze, H. Weiland, J. Tonry, H. Flewelling, A.
   Fitzsimmons, D. Young. Measurers L. Denneau, A. Heinze, J. Tonry. 0.5-m
   f/2.0 Schmidt + CCD.
(T08) ATLAS-MLO, Mauna Loa  (N19.535772 W155.576400)  US/Hawaii.

Orbital elements:  A10arpU
   Perihelion 2018 Oct 2.120893 +/- 6.59 TT =  2:54:05 (JD 2458393.620893)
Epoch 2018 Dec  7.0 TT = JDT 2458459.5   Earth MOID: 0.0217   Ve: 0.0312
M  80.69363734 +/- 19               Me: 0.0194                AutoNEOCP
n   1.22487449 +/- 0.163            Peri.   56.19955 +/- 11
a   0.86511728 +/- 0.0767           Node   233.07784 +/- 18
e   0.6252450 +/- 0.0424            Incl.    5.13668 +/- 2.8
P   0.80/293.90d           H 23.1   G  0.15   U 11.5  
q 0.32420694 +/- 0.00772    Q 1.40602762 +/- 0.154
From 14 observations 2018 Dec. 6 (3.6 hr); mean residual 0".57
Residuals in arcseconds: 
181206 T05  .64+  .55-    181206 474  .12+  .05-    181206 T08  .68-  .83-    
181206 T05  .58-  .94+    181206 474  .22+  .24-    181206 T08  .24-  1.7+    
181206 T05  .41-  .36+    181206 T08  .54+  .52-    181206 T08  .26-  .14-    
181206 T05  .29+  .77-    181206 T08  .53+  .12-    181206 T08  .87-  .46+    
181206 474  .32+  .17-    181206 474  .17+  .08+    

Ephemerides (geocentric):
Date (UTC) HH   RA              Dec         delta   r     elong  mag " sig PA
---- -- -- --  -------------   -----------  ------ ------ -----  --- ---- ---
2018 12 08 04  04 36 20.976   +02 51 38.74  .11223 1.0909 159.5 19.5 16.3  97
2018 12 08 05  04 35 54.676   +02 53 03.86  .11262 1.0913 159.5 19.5 17.1  97
2018 12 08 06  04 35 28.557   +02 54 28.45  .11300 1.0916 159.5 19.5 17.8  97
2018 12 08 07  04 35 02.615   +02 55 52.51  .11339 1.0920 159.4 19.5 18.7  97
2018 12 08 08  04 34 36.851   +02 57 16.06  .11378 1.0923 159.4 19.5 19.5  97
2018 12 08 09  04 34 11.262   +02 58 39.09  .11416 1.0927 159.4 19.5 20.3  97
2018 12 08 10  04 33 45.846   +03 00 01.61  .11455 1.0930 159.4 19.6 21.1  98
2018 12 08 11  04 33 20.603   +03 01 23.62  .11494 1.0934 159.3 19.6 22.0  98
2018 12 08 12  04 32 55.531   +03 02 45.13  .11533 1.0937 159.3 19.6 22.8  98
2018 12 08 13  04 32 30.629   +03 04 06.14  .11572 1.0941 159.3 19.6 23.7  98
2018 12 08 14  04 32 05.894   +03 05 26.66  .11611 1.0944 159.2 19.6 24.6  98
2018 12 08 15  04 31 41.326   +03 06 46.70  .11650 1.0947 159.2 19.6 25.5  98
2018 12 08 16  04 31 16.923   +03 08 06.25  .11689 1.0951 159.2 19.6 26.4  98
2018 12 08 17  04 30 52.683   +03 09 25.32  .11728 1.0954 159.2 19.6 27.3  98
2018 12 08 18  04 30 28.607   +03 10 43.92  .11767 1.0958 159.1 19.6 28.2  98
2018 12 08 19  04 30 04.691   +03 12 02.05  .11806 1.0961 159.1 19.6 29.1  98
2018 12 08 20  04 29 40.934   +03 13 19.71  .11845 1.0965 159.1 19.6 30.1  98
2018 12 08 21  04 29 17.336   +03 14 36.91  .11885 1.0968 159.0 19.6 31.0  98
2018 12 08 22  04 28 53.895   +03 15 53.65  .11924 1.0971 159.0 19.7 32.0  98
2018 12 08 23  04 28 30.609   +03 17 09.94  .11963 1.0975 158.9 19.7 32.9  98
2018 12 09 00  04 28 07.478   +03 18 25.78  .12003 1.0978 158.9 19.7 33.9  99
2018 12 09 01  04 27 44.500   +03 19 41.18  .12042 1.0982 158.9 19.7 34.8  99
2018 12 09 02  04 27 21.673   +03 20 56.13  .12082 1.0985 158.8 19.7 35.8  99
2018 12 09 03  04 26 58.997   +03 22 10.65  .12121 1.0989 158.8 19.7 36.8  99
2018 12 09 04  04 26 36.470   +03 23 24.74  .12161 1.0992 158.8 19.7 37.8  99
2018 12 09 05  04 26 14.091   +03 24 38.40  .12201 1.0995 158.7 19.7 38.8  99
2018 12 09 06  04 25 51.859   +03 25 51.63  .12240 1.0999 158.7 19.7 39.8  99
2018 12 09 07  04 25 29.772   +03 27 04.44  .12280 1.1002 158.6 19.7 40.8  99
2018 12 09 08  04 25 07.829   +03 28 16.84  .12320 1.1006 158.6 19.7 41.8  99
2018 12 09 09  04 24 46.030   +03 29 28.82  .12360 1.1009 158.5 19.8 42.8  99
2018 12 09 10  04 24 24.372   +03 30 40.39  .12400 1.1013 158.5 19.8 43.9  99
2018 12 09 11  04 24 02.855   +03 31 51.56  .12440 1.1016 158.5 19.8 44.9  99
2018 12 09 12  04 23 41.478   +03 33 02.32  .12479 1.1019 158.4 19.8 45.9  99
2018 12 09 13  04 23 20.239   +03 34 12.69  .12519 1.1023 158.4 19.8 47.0  99
2018 12 09 14  04 22 59.138   +03 35 22.66  .12560 1.1026 158.3 19.8 48.0  99
2018 12 09 15  04 22 38.173   +03 36 32.24  .12600 1.1030 158.3 19.8 49.1  99
2018 12 09 16  04 22 17.342   +03 37 41.44  .12640 1.1033 158.2 19.8 50.1  99
2018 12 09 17  04 21 56.646   +03 38 50.24  .12680 1.1036 158.2 19.8 51.2  99
2018 12 09 18  04 21 36.082   +03 39 58.67  .12720 1.1040 158.1 19.8 52.2  99
2018 12 09 19  04 21 15.651   +03 41 06.72  .12760 1.1043 158.1 19.8 53.3  99
2018 12 09 20  04 20 55.350   +03 42 14.40  .12800 1.1046 158.0 19.8 54.4  99
2018 12 09 21  04 20 35.178   +03 43 21.71  .12841 1.1050 158.0 19.9 55.5  99
2018 12 09 22  04 20 15.135   +03 44 28.65  .12881 1.1053 157.9 19.9 56.5  99
2018 12 09 23  04 19 55.220   +03 45 35.22  .12922 1.1057 157.9 19.9 57.6  99
2018 12 10 00  04 19 35.431   +03 46 41.44  .12962 1.1060 157.8 19.9 58.7  99
2018 12 10 01  04 19 15.768   +03 47 47.29  .13002 1.1063 157.8 19.9 59.8  99
2018 12 10 02  04 18 56.229   +03 48 52.80  .13043 1.1067 157.7 19.9 60.9  99
2018 12 10 03  04 18 36.814   +03 49 57.95  .13083 1.1070 157.7 19.9 61.9  99